Temp
67 70 70 69 58 51 46 56 63 69 71 81 80 78 75 79 76 64 81 84 81 78 79 79 79 80 80 79 79 78 78 78 78 78 79 79 79 79 79 79 79 80 81 81 81 81 81 81 81
67 74 69 61 51 43 48 59 64 70 78 80 80 80 77 74 84 81 77 81 82 79 78 78 79 79 79 79 79 78 78 78 78 78 78 79 79 79 79 79 79 80 81 81 81 81 81 81 81
71 73 62 55 46 45 49 61 66 75 80 81 77 83 80 77 83 84 84 83 81 78 78 79 79 79 79 79 78 78 78 78 78 78 78 79 78 78 79 79 79 80 81 81 81 81 80 80 81
69 65 62 52 47 55 58 67 73 71 80 79 76 75 82 86 85 86 85 83 79 77 77 79 79 79 79 79 79 78 78 78 78 79 78 78 78 78 78 78 79 80 81 81 81 80 80 80 80
65 58 51 44 50 58 65 70 74 71 71 74 78 73 75 83 87 85 84 84 79 76 77 78 79 79 79 79 79 78 78 78 78 78 78 78 78 78 78 78 79 79 80 80 80 80 79 79 79
59 56 47 44 51 62 68 70 73 69 70 74 75 75 71 79 84 82 83 82 83 78 77 78 79 79 79 79 79 78 78 78 78 78 78 78 78 78 78 78 79 79 79 79 79 79 79 79 79
55 51 45 47 54 59 68 71 69 68 68 73 74 71 72 79 82 84 78 80 80 79 77 77 78 79 79 78 78 78 78 77 78 78 78 78 78 78 78 78 78 78 78 78 79 79 78 78 78
60 54 47 48 53 54 67 69 68 69 71 80 80 69 66 74 83 83 83 75 75 76 76 75 76 77 77 77 78 78 77 77 77 77 78 77 78 78 78 77 77 78 78 78 78 78 78 78 78
65 50 44 49 55 56 63 64 72 74 72 75 74 76 78 81 80 78 76 74 71 75 73 74 74 75 75 76 78 78 78 78 78 78 77 76 74 75 76 76 77 78 78 78 78 78 78 78 78
59 48 51 60 59 57 60 64 66 69 68 69 73 79 79 79 76 74 73 73 67 70 72 72 73 74 74 79 77 75 76 76 76 76 75 73 72 72 76 76 77 78 78 78 78 78 78 78 74
56 54 60 66 66 63 63 64 67 65 61 68 69 73 77 76 72 70 70 70 69 71 75 76 74 74 75 78 75 76 75 74 74 75 74 73 74 73 74 71 74 72 76 72 74 72 72 71 73
53 63 62 66 67 64 63 66 66 67 68 74 75 76 74 76 73 73 71 71 70 71 75 76 75 74 75 77 75 75 75 75 74 74 73 71 72 72 72 71 71 71 71 70 69 68 70 71 74
55 62 66 66 65 63 67 65 64 66 73 75 75 76 74 72 73 72 73 72 71 69 73 73 75 73 74 73 73 74 74 75 74 73 73 72 70 72 71 71 71 71 70 69 67 68 71 72 75
61 61 63 63 63 63 62 67 65 72 74 75 74 74 74 72 73 72 73 72 72 74 71 74 76 75 71 74 75 74 75 74 74 74 74 74 74 73 73 73 72 71 70 71 70 70 70 71 74
63 56 60 61 64 64 66 63 63 73 75 72 73 74 75 72 74 72 75 73 73 73 72 72 72 73 72 71 76 75 75 76 75 75 75 75 74 74 74 74 73 74 72 71 70 72 73 72 75
56 53 47 61 64 69 65 52 66 71 69 69 71 73 73 72 72 72 72 71 71 71 73 70 78 73 74 70 74 74 71 75 76 76 75 75 75 74 72 76 75 76 72 72 72 74 73 72 72
51 44 49 56 64 63 59 56 66 69 68 66 66 68 69 68 69 69 72 70 69 69 71 69 72 71 71 71 71 71 73 69 71 69 74 75 76 76 76 75 76 72 71 72 74 73 74 72 71
46 46 49 51 61 62 56 56 63 68 66 63 64 64 65 65 66 69 69 71 71 70 68 68 68 70 69 71 69 69 69 71 70 69 70 74 76 76 75 74 74 72 71 72 71 71 70 71 72
55 52 51 56 62 55 53 55 61 64 62 60 60 62 62 63 67 69 70 70 69 70 67 67 67 68 67 67 67 67 68 68 70 70 72 72 77 76 75 73 71 70 71 71 71 70 69 68 69
56 52 50 56 62 57 55 56 58 61 59 60 59 60 62 62 63 65 66 67 67 65 67 67 66 66 67 67 68 68 68 68 69 72 73 74 76 75 74 73 71 70 69 69 69 70 67 66 66
53 50 51 51 57 57 54 49 54 60 60 61 59 60 61 61 60 61 63 63 64 65 66 66 67 66 65 66 65 63 62 64 65 68 70 72 74 76 77 73 72 70 71 70 69 69 68 66 64
48 60 58 55 49 41 52 36 47 51 53 56 55 56 59 60 60 61 61 61 62 64 65 63 64 64 66 62 66 65 62 64 65 71 70 70 71 74 77 75 73 71 68 69 70 69 68 66 63
54 61 55 55 47 42 46 36 43 51 48 50 54 59 58 59 59 59 59 61 62 64 65 65 63 64 64 66 67 67 66 70 71 67 68 70 70 70 71 72 74 72 72 69 69 68 67 65 63
63 55 49 47 41 30 42 40 38 43 47 52 55 56 58 57 58 59 60 61 61 62 62 62 63 62 63 64 66 67 67 66 65 66 67 69 67 66 68 69 72 72 70 70 68 65 64 62 60
53 43 29 31 28 32 44 38 39 49 55 54 52 56 57 56 56 57 56 58 59 59 60 62 63 62 62 63 64 66 69 68 68 67 68 68 65 66 66 67 69 69 68 66 65 64 63 62 60
49 44 32 27 25 32 44 35 41 54 56 56 55 53 56 56 56 56 57 58 59 59 59 60 60 61 63 62 65 65 68 69 68 67 67 67 68 68 69 69 70 67 67 65 64 63 60 60 58
49 40 49 33 34 26 36 43 49 52 53 54 53 54 53 54 55 54 57 58 59 60 59 59 61 63 63 62 65 64 68 69 68 67 68 67 67 68 68 69 67 66 65 63 63 60 57 60 56
51 54 38 34 21 24 34 38 37 45 46 50 49 49 51 54 54 55 56 57 59 60 60 61 61 62 61 62 65 65 67 69 68 67 67 67 67 68 68 67 65 64 63 62 61 58 57 55 53
46 45 44 41 33 28 29 35 48 44 47 47 47 48 50 52 55 55 55 58 59 60 60 60 58 58 58 61 63 65 66 68 68 67 67 67 67 68 67 66 63 63 61 59 57 55 56 54 53
54 47 46 33 34 33 36 35 49 49 49 48 47 48 51 53 54 56 56 57 57 58 60 61 58 57 56 58 61 62 66 67 66 66 66 67 67 68 66 65 63 61 58 57 56 56 55 53 51
MSLP
1010.35 1009.97 1010.02 1010.21 1011.45 1011.91 1010.97 1008.83 1006.67 1005.41 1003.83 1002.53 1001.91 1002.03 1002.54 1002.79 1003.06 1004.05 1004.11 1004.29 1005.28 1005.83 1006.39 1006.97 1007.15 1007.09 1007.48 1007.91 1008.34 1008.43 1008.49 1008.69 1009.21 1009.61 1009.95 1010.27 1010.36 1010.65 1010.87 1011.20 1011.58 1011.70 1011.76 1011.79 1011.93 1012.16 1012.27 1012.17 1012.15
1010.43 1010.03 1010.24 1010.79 1011.99 1012.51 1010.51 1008.05 1006.45 1004.85 1003.29 1002.56 1002.21 1002.19 1002.55 1003.72 1003.40 1004.09 1004.43 1004.90 1005.14 1005.71 1006.18 1006.67 1007.16 1007.31 1007.27 1007.83 1008.36 1008.71 1008.82 1008.90 1009.17 1009.72 1010.07 1010.25 1010.63 1010.76 1011.04 1011.33 1011.34 1011.57 1011.93 1012.07 1012.04 1012.13 1012.18 1012.22 1012.27
1010.46 1010.41 1010.97 1011.61 1012.07 1011.88 1010.01 1007.56 1006.00 1004.48 1003.37 1002.39 1002.13 1002.32 1002.81 1003.54 1003.62 1003.67 1003.81 1004.76 1005.38 1006.02 1006.27 1006.48 1006.79 1007.36 1007.52 1007.67 1008.15 1008.59 1008.85 1009.09 1009.26 1009.69 1010.14 1010.36 1010.54 1010.97 1011.14 1011.25 1011.51 1011.66 1011.71 1011.98 1012.25 1012.34 1012.28 1012.23 1012.16
1010.51 1010.97 1011.61 1011.68 1011.57 1010.15 1008.99 1007.18 1005.65 1004.85 1003.23 1002.58 1002.61 1003.18 1003.23 1003.27 1003.43 1003.58 1004.26 1004.77 1005.35 1005.95 1006.21 1006.62 1006.85 1007.26 1007.85 1008.05 1008.05 1008.46 1008.91 1009.17 1009.34 1009.65 1010.20 1010.39 1010.57 1010.98 1011.28 1011.40 1011.53 1011.73 1011.99 1012.09 1012.18 1012.34 1012.34 1012.22 1012.15
1010.81 1011.67 1012.26 1012.31 1011.08 1009.50 1008.28 1006.80 1005.13 1004.71 1003.78 1003.53 1002.63 1003.85 1004.07 1004.17 1003.97 1004.23 1004.42 1004.85 1005.31 1006.08 1006.36 1006.62 1006.99 1007.17 1007.70 1008.17 1008.39 1008.43 1008.82 1009.12 1009.44 1009.67 1009.99 1010.37 1010.48 1010.81 1011.21 1011.34 1011.49 1011.65 1011.84 1012.01 1012.15 1012.20 1012.23 1012.12 1012.05
1011.46 1012.17 1012.72 1012.23 1010.72 1009.21 1007.87 1006.55 1005.53 1004.66 1004.42 1003.78 1003.85 1004.15 1004.83 1004.83 1004.52 1005.05 1004.81 1005.06 1005.04 1005.47 1006.29 1006.68 1006.75 1007.05 1007.41 1007.93 1008.47 1008.75 1008.77 1009.05 1009.40 1009.77 1010.04 1010.22 1010.26 1010.45 1010.88 1011.22 1011.37 1011.58 1011.77 1011.93 1012.03 1012.07 1011.91 1011.84 1011.83
1011.53 1012.49 1012.59 1011.88 1010.48 1009.37 1007.95 1006.51 1006.35 1005.63 1005.05 1004.60 1004.17 1004.77 1005.21 1004.74 1004.46 1004.39 1004.92 1005.14 1005.76 1006.31 1006.39 1006.51 1006.80 1006.91 1007.29 1007.85 1008.32 1008.81 1009.06 1009.06 1009.32 1009.65 1010.00 1010.27 1010.40 1010.37 1010.63 1010.91 1011.21 1011.43 1011.65 1011.78 1011.92 1011.94 1011.85 1011.55 1011.66
1011.06 1012.11 1012.14 1011.19 1010.11 1009.35 1008.17 1007.32 1006.69 1006.25 1005.52 1005.12 1004.75 1005.35 1005.27 1005.02 1004.85 1004.56 1004.49 1005.47 1005.77 1006.15 1006.65 1006.75 1006.51 1006.60 1006.81 1007.26 1007.83 1008.43 1009.03 1009.29 1009.31 1009.66 1009.99 1010.21 1010.35 1010.42 1010.54 1010.79 1011.01 1011.24 1011.47 1011.70 1011.81 1011.81 1011.75 1011.55 1011.49
1010.29 1011.80 1012.03 1011.01 1009.85 1009.13 1008.32 1007.73 1007.13 1006.55 1006.20 1005.58 1005.68 1005.35 1005.23 1005.25 1005.06 1005.07 1005.43 1006.15 1006.64 1006.55 1006.48 1006.88 1007.05 1007.08 1007.10 1007.41 1007.55 1007.78 1008.61 1009.15 1009.45 1009.69 1009.97 1010.36 1010.44 1010.50 1010.65 1010.75 1010.91 1011.04 1011.22 1011.48 1011.63 1011.66 1011.63 1011.52 1011.51
1010.37 1011.21 1011.09 1009.99 1009.17 1008.69 1008.26 1007.87 1007.50 1007.21 1007.02 1006.56 1005.75 1004.91 1005.23 1005.34 1005.56 1005.87 1006.09 1006.18 1006.73 1007.00 1007.09 1007.25 1007.13 1006.98 1007.12 1007.17 1007.55 1007.93 1008.01 1008.72 1009.32 1009.63 1009.83 1010.20 1010.42 1010.54 1010.61 1010.77 1010.95 1011.06 1011.13 1011.25 1011.36 1011.40 1011.42 1011.46 1011.50
1010.13 1010.22 1009.87 1009.15 1008.61 1008.27 1007.89 1007.55 1007.42 1007.29 1007.19 1006.74 1006.25 1005.75 1005.31 1004.99 1005.45 1005.85 1005.97 1006.02 1006.33 1006.21 1006.57 1006.81 1007.23 1007.43 1007.06 1007.12 1007.26 1007.55 1007.95 1008.33 1008.95 1009.42 1009.73 1009.89 1010.18 1010.45 1010.59 1010.71 1010.89 1011.07 1011.15 1011.25 1011.14 1011.18 1011.28 1011.34 1011.23
1010.23 1009.66 1009.57 1008.97 1008.33 1008.36 1007.94 1007.49 1007.37 1007.09 1006.45 1005.95 1005.68 1005.37 1005.33 1005.28 1005.55 1005.45 1005.58 1005.66 1005.75 1006.31 1006.04 1005.94 1006.66 1007.46 1007.58 1007.37 1007.49 1007.45 1007.74 1008.06 1008.63 1009.02 1009.49 1009.89 1010.14 1010.41 1010.55 1010.61 1010.70 1010.89 1010.95 1011.11 1011.13 1011.15 1011.09 1011.03 1010.94
1010.19 1010.00 1009.30 1008.69 1008.33 1008.09 1007.65 1007.27 1007.33 1006.77 1005.76 1005.33 1005.21 1005.16 1005.20 1005.25 1005.28 1005.03 1004.92 1005.00 1005.07 1005.45 1005.63 1005.51 1005.85 1006.79 1007.47 1007.65 1007.88 1008.10 1007.72 1007.73 1008.03 1008.51 1008.90 1009.36 1009.92 1010.09 1010.13 1010.38 1010.47 1010.59 1010.74 1010.85 1011.00 1011.09 1010.98 1010.83 1010.87
1010.42 1010.01 1009.33 1008.68 1008.25 1007.69 1007.61 1007.01 1007.04 1005.94 1005.39 1005.27 1005.01 1004.94 1004.75 1004.91 1004.84 1004.71 1004.71 1004.59 1004.72 1004.64 1005.12 1004.96 1005.22 1005.62 1006.42 1007.02 1007.06 1007.49 1007.91 1007.80 1007.74 1007.97 1008.29 1008.69 1009.06 1009.54 1009.70 1009.97 1010.28 1010.29 1010.41 1010.43 1010.59 1010.70 1010.73 1010.63 1010.76
1010.58 1010.33 1009.29 1008.57 1007.96 1007.57 1007.23 1007.31 1006.91 1005.53 1005.37 1005.49 1005.11 1004.81 1004.41 1004.40 1004.40 1004.50 1003.95 1004.07 1004.08 1004.06 1004.20 1004.74 1004.79 1005.06 1005.63 1005.97 1006.47 1007.01 1007.11 1007.46 1007.66 1007.67 1007.80 1008.09 1008.45 1008.87 1009.17 1009.44 1009.83 1009.73 1009.83 1009.96 1010.30 1010.54 1010.55 1010.78 1010.64
1010.93 1010.82 1010.14 1008.44 1008.06 1007.22 1007.35 1007.45 1006.31 1005.86 1006.08 1005.82 1005.56 1005.28 1004.72 1004.21 1004.50 1004.67 1004.33 1003.89 1003.81 1004.01 1004.04 1004.39 1004.24 1004.64 1005.06 1005.37 1005.61 1005.98 1006.45 1007.03 1007.09 1007.06 1007.14 1007.45 1007.75 1008.17 1008.72 1008.96 1009.16 1009.05 1009.44 1009.87 1010.13 1010.23 1010.34 1010.48 1010.84
1011.54 1011.27 1010.65 1009.20 1007.73 1007.90 1007.65 1007.49 1006.70 1006.05 1006.14 1006.51 1006.62 1006.45 1006.43 1006.46 1006.00 1005.68 1005.39 1004.88 1004.77 1004.47 1003.87 1004.16 1004.10 1004.29 1004.41 1004.99 1005.27 1005.45 1005.83 1006.21 1006.52 1006.80 1006.96 1006.69 1007.21 1007.57 1008.17 1008.55 1008.67 1008.68 1009.17 1009.58 1009.82 1009.90 1010.18 1010.46 1010.56
1011.51 1011.07 1010.40 1009.71 1008.25 1007.89 1007.89 1007.65 1006.78 1006.41 1006.63 1007.28 1007.47 1007.81 1007.45 1007.45 1007.01 1006.33 1005.83 1005.22 1004.81 1004.51 1004.31 1004.31 1003.85 1003.83 1003.93 1004.07 1004.83 1005.47 1005.72 1005.82 1006.00 1006.17 1006.53 1006.49 1006.55 1006.95 1007.51 1008.01 1008.27 1008.51 1008.91 1009.23 1009.44 1009.71 1010.06 1010.16 1010.39
1010.64 1010.28 1010.01 1009.17 1008.53 1008.54 1008.47 1008.24 1008.04 1007.79 1007.90 1008.24 1008.38 1008.61 1008.70 1008.24 1007.69 1006.89 1006.37 1005.77 1005.18 1004.72 1004.59 1004.35 1004.27 1003.62 1003.90 1004.23 1004.63 1005.03 1005.51 1005.54 1005.76 1005.86 1005.90 1006.16 1006.14 1006.28 1006.98 1007.51 1007.64 1008.05 1008.44 1008.61 1009.01 1009.32 1009.94 1010.38 1010.45
1009.66 1009.90 1009.84 1009.25 1008.57 1008.52 1008.61 1008.84 1008.92 1008.83 1009.37 1009.62 1009.71 1009.50 1009.15 1008.39 1007.57 1006.96 1006.48 1006.14 1005.91 1005.41 1004.61 1004.10 1004.00 1003.88 1003.53 1003.23 1003.46 1003.57 1004.07 1004.59 1005.07 1005.54 1005.93 1005.97 1006.07 1005.96 1006.40 1006.79 1007.14 1007.49 1007.88 1008.31 1008.62 1008.72 1009.70 1010.35 1010.66
1009.43 1009.71 1009.72 1009.65 1009.05 1008.88 1009.10 1009.54 1009.69 1009.86 1010.02 1009.97 1009.89 1009.93 1009.36 1009.16 1008.47 1007.68 1007.09 1006.74 1006.17 1005.68 1004.99 1004.25 1003.67 1003.44 1003.29 1002.81 1002.83 1003.31 1003.70 1004.12 1004.50 1004.83 1005.23 1005.67 1005.82 1005.67 1005.67 1006.04 1006.49 1006.95 1007.35 1007.90 1008.17 1008.37 1008.88 1010.02 1010.71
1009.31 1009.33 1009.70 1009.96 1010.12 1010.27 1009.87 1010.75 1010.53 1010.44 1010.22 1010.39 1010.44 1010.16 1009.74 1009.32 1008.83 1008.66 1008.04 1007.33 1006.69 1005.80 1004.81 1004.37 1003.77 1003.36 1003.05 1002.79 1002.27 1002.23 1002.95 1003.46 1003.47 1003.44 1004.01 1004.85 1005.21 1005.48 1005.17 1005.15 1005.63 1006.10 1006.74 1007.40 1007.86 1008.09 1008.47 1009.09 1010.41
1009.39 1009.41 1010.10 1010.40 1010.79 1011.08 1011.09 1011.59 1011.19 1010.93 1010.90 1010.82 1010.71 1010.26 1009.80 1009.51 1009.05 1008.31 1007.53 1006.89 1006.34 1005.55 1004.76 1004.01 1003.36 1002.97 1002.75 1002.20 1002.19 1001.56 1001.67 1002.02 1002.28 1002.84 1003.19 1003.67 1004.31 1004.70 1004.94 1005.44 1005.31 1005.46 1006.33 1006.92 1007.39 1008.05 1008.50 1008.94 1009.99
1009.46 1010.20 1010.89 1011.49 1012.20 1012.65 1012.39 1012.35 1012.21 1011.74 1011.67 1011.23 1010.92 1010.47 1009.99 1009.36 1008.73 1007.93 1007.37 1006.86 1006.10 1005.26 1004.61 1003.69 1002.84 1002.15 1002.00 1001.72 1001.34 1001.17 1000.64 1000.99 1001.75 1002.19 1002.57 1002.95 1003.71 1004.07 1004.19 1005.41 1005.29 1004.97 1005.68 1006.56 1007.04 1007.75 1008.43 1009.17 1009.75
1010.33 1011.74 1013.49 1014.08 1014.42 1014.18 1013.08 1013.06 1012.54 1011.97 1011.55 1011.30 1010.78 1010.41 1009.91 1009.47 1008.95 1007.95 1007.17 1006.22 1005.23 1004.39 1003.76 1002.97 1002.27 1001.48 1001.19 1001.07 1000.58 1000.25 1000.03 1000.01 1000.30 1001.00 1001.54 1002.11 1003.32 1003.49 1003.61 1005.20 1005.39 1004.54 1005.29 1006.47 1007.10 1007.88 1008.76 1009.32 1009.99
1011.21 1012.46 1014.55 1015.75 1016.51 1015.33 1013.52 1012.99 1012.46 1011.59 1011.31 1011.02 1010.88 1010.75 1009.96 1009.23 1008.72 1007.95 1007.27 1006.23 1005.16 1003.99 1002.98 1002.19 1001.39 1000.52 1000.25 999.92 999.44 999.15 999.28 999.07 999.42 999.94 1000.54 1001.06 1002.09 1002.75 1003.73 1004.84 1004.20 1004.38 1005.12 1006.23 1007.15 1008.07 1008.97 1009.73 1010.29
1011.51 1013.09 1014.09 1015.83 1016.94 1016.71 1014.56 1013.08 1012.36 1011.50 1011.09 1010.82 1010.65 1010.25 1009.93 1009.37 1008.63 1007.78 1006.81 1005.99 1004.97 1003.79 1002.71 1001.82 1000.55 998.91 998.53 998.62 998.03 997.97 998.21 998.17 998.71 999.16 999.59 1000.29 1001.30 1002.26 1002.56 1003.05 1003.81 1004.14 1004.93 1005.97 1007.31 1008.16 1009.26 1009.83 1010.67
1011.85 1013.04 1014.44 1016.19 1017.40 1017.13 1015.34 1013.80 1012.20 1011.73 1011.71 1011.35 1010.82 1010.57 1010.04 1009.15 1008.08 1006.90 1006.15 1005.37 1004.39 1003.15 1002.04 1000.85 999.75 998.19 997.57 997.59 997.19 997.08 997.15 997.54 997.94 998.52 999.17 999.64 1000.47 1001.55 1002.38 1002.77 1003.68 1004.19 1004.91 1006.25 1006.98 1008.58 1009.67 1010.28 1011.46
1012.57 1013.09 1014.33 1015.63 1016.93 1017.11 1016.06 1013.81 1012.32 1012.11 1011.87 1011.43 1011.03 1010.75 1009.84 1008.77 1007.82 1007.02 1006.47 1005.52 1004.52 1003.17 1001.86 1000.63 999.49 998.10 997.55 997.23 996.61 996.27 996.49 996.85 997.25 997.97 998.74 999.26 1000.02 1000.99 1002.23 1002.96 1003.01 1003.81 1005.11 1006.67 1007.85 1009.39 1010.17 1010.95 1011.62
1012.39 1013.02 1013.91 1015.62 1016.50 1016.47 1015.95 1013.85 1012.19 1012.13 1011.87 1011.47 1011.15 1010.79 1009.70 1008.80 1008.04 1007.24 1006.25 1005.39 1004.43 1003.03 1001.58 1000.40 999.65 998.81 998.08 996.50 995.43 995.61 995.56 996.10 996.77 997.48 998.07 998.65 999.73 1000.64 1001.93 1003.11 1003.33 1004.28 1005.60 1007.17 1008.09 1009.55 1010.77 1011.14 1011.77
Wind_Speed
7 7 1 4 5 6 5 8 3 10 6 5 3 8 8 7 1 5 3 8 16 15 13 12 16 19 17 15 15 16 18 18 17 16 15 15 16 15 15 14 11 10 11 11 10 8 6 5 5
4 5 4 2 6 3 7 6 6 8 8 8 9 7 8 5 4 8 6 10 16 16 13 13 15 16 20 17 15 15 16 18 18 16 15 15 14 14 14 12 13 12 9 8 8 7 6 4 3
3 0 4 4 4 6 6 4 5 10 10 7 5 5 4 4 3 6 8 15 14 11 10 13 18 15 17 20 18 16 16 17 18 18 16 15 15 12 12 12 11 11 12 9 7 5 3 3 2
3 5 5 4 6 8 5 12 13 8 8 11 2 8 4 2 4 5 15 15 13 10 8 13 17 17 14 15 18 17 16 16 17 18 16 16 15 13 11 11 10 9 9 7 7 4 3 3 3
4 3 3 1 7 6 5 8 14 6 2 5 5 5 5 6 9 9 13 15 15 10 9 12 16 17 16 15 15 17 17 16 16 17 17 16 16 14 12 11 10 9 9 8 7 6 5 5 6
4 3 4 3 6 6 8 8 6 3 4 6 8 6 3 3 10 6 8 8 12 15 11 12 17 17 17 16 14 14 17 17 16 16 16 16 16 16 14 12 11 10 9 8 7 7 7 8 8
5 4 4 4 6 8 6 11 8 5 6 7 1 5 2 8 6 7 6 8 8 5 8 9 10 14 18 16 15 13 13 17 17 16 16 15 15 15 15 14 12 10 9 9 8 8 8 9 8
5 5 3 3 4 6 7 8 7 9 5 4 3 2 3 3 6 7 7 8 9 7 5 7 11 12 13 14 19 16 14 14 16 16 15 15 15 14 14 13 12 11 10 9 8 9 9 10 9
5 5 2 4 4 3 6 8 7 5 7 5 3 3 2 5 7 10 7 5 4 5 7 6 6 7 8 9 13 18 18 15 15 15 15 11 5 7 10 11 12 12 11 10 9 10 10 11 10
5 4 7 8 2 3 0 5 5 6 8 6 12 11 1 4 6 7 5 5 3 2 1 1 4 8 8 8 9 9 11 9 8 9 10 6 5 5 8 9 12 12 11 11 11 11 10 9 4
3 6 6 8 6 2 4 4 2 3 4 6 7 7 10 6 5 1 0 3 5 5 6 9 7 6 10 9 7 5 5 6 6 9 9 7 6 5 5 3 5 4 10 4 7 6 4 5 5
1 4 1 6 4 5 4 3 5 5 10 9 10 8 3 9 8 8 5 3 4 6 7 10 8 5 7 5 7 7 7 7 7 8 9 6 5 6 5 4 5 5 4 6 5 3 5 6 6
2 5 9 9 10 7 4 7 5 9 12 9 9 7 8 8 9 7 8 6 5 3 5 9 11 8 6 5 4 5 7 8 9 9 10 7 5 6 5 5 5 5 4 5 5 5 5 5 4
5 7 10 7 12 8 4 11 4 16 10 11 8 10 10 9 12 6 7 8 7 7 8 8 13 13 10 8 10 8 6 7 8 9 10 12 9 7 7 7 7 5 4 5 5 5 5 4 4
7 7 9 3 5 8 5 8 8 18 12 12 12 12 12 12 10 12 12 10 10 8 6 9 10 13 14 11 10 7 8 8 8 9 12 13 11 9 9 7 7 8 6 7 4 4 4 4 3
5 4 6 9 3 7 9 8 13 9 5 9 10 10 10 10 7 8 9 8 8 6 8 8 6 11 13 9 9 8 7 7 8 9 9 13 13 11 7 8 8 7 5 5 4 4 4 4 4
5 2 4 10 6 3 2 8 7 9 6 8 11 16 15 13 16 13 15 7 8 8 8 7 8 9 10 8 6 7 12 7 7 5 8 12 13 12 11 7 8 6 4 5 5 3 3 3 2
5 3 4 6 8 8 7 8 11 10 10 11 12 11 14 13 12 10 12 12 9 7 6 7 7 9 8 6 6 2 3 7 5 7 6 10 11 12 11 7 8 6 5 4 3 3 2 2 4
7 3 5 7 6 2 4 7 16 17 14 13 12 12 11 12 11 14 15 13 10 9 6 9 6 9 5 3 4 6 5 5 6 7 10 10 12 12 11 7 6 6 6 6 6 4 5 2 2
3 4 6 6 7 5 8 10 7 10 7 11 11 12 14 17 17 19 19 16 16 10 10 9 9 8 7 5 4 4 6 4 5 2 5 9 13 10 10 9 7 7 5 6 6 6 4 2 1
3 2 5 6 8 5 3 5 5 4 9 9 11 9 12 13 16 19 20 19 19 17 14 9 10 9 9 9 3 3 4 4 3 3 2 7 9 12 14 11 9 7 6 7 6 6 7 4 1
2 6 5 10 4 5 4 5 2 1 9 10 9 10 13 15 13 12 15 16 16 18 11 9 9 8 8 10 8 8 8 8 6 10 13 9 6 10 15 14 12 9 6 7 7 5 5 6 5
6 7 5 7 5 3 6 5 4 3 7 7 9 13 12 12 12 18 18 17 17 16 15 13 11 10 8 9 14 11 11 11 9 8 12 13 10 5 2 9 12 10 7 6 7 6 6 4 5
4 5 6 5 4 4 3 4 5 3 3 6 8 10 12 13 15 17 16 16 16 15 16 15 15 13 8 9 14 16 17 12 9 8 10 8 8 8 8 5 10 10 8 8 7 6 7 6 5
8 8 5 7 7 5 1 4 5 2 2 4 9 15 15 11 14 17 18 18 20 20 18 16 16 16 10 11 14 17 18 15 16 13 11 11 9 8 11 11 13 9 9 9 9 10 9 8 8
3 7 5 2 3 6 8 3 4 5 4 6 7 8 13 15 14 15 16 18 20 22 23 20 21 20 14 13 17 16 17 11 11 12 9 10 10 12 15 18 16 12 14 12 11 9 8 9 8
3 5 4 5 3 3 4 3 5 3 6 11 11 13 15 16 15 15 18 17 18 19 20 20 20 24 17 17 15 15 15 16 12 12 11 8 10 12 16 17 12 14 15 14 13 10 10 10 8
8 2 4 4 2 5 6 5 6 6 9 10 10 11 15 15 16 17 18 21 20 19 17 19 20 17 15 15 12 10 13 14 11 10 12 11 11 15 13 13 12 15 15 14 14 10 9 12 5
4 4 1 4 5 3 4 6 3 2 8 10 9 10 13 15 15 15 16 17 20 19 18 17 15 12 7 13 14 13 13 13 11 11 12 12 13 15 14 14 15 16 16 13 12 11 11 13 11
4 2 3 5 4 4 2 7 1 5 7 7 8 11 14 13 14 12 14 16 19 19 20 18 13 12 10 8 12 13 14 12 11 11 12 13 15 15 16 15 14 16 17 14 15 14 10 13 13
Wind_Direction
323 304 340 37 54 58 270 266 319 304 304 27 57 82 91 40 80 187 97 136 142 143 149 154 153 144 140 139 138 136 133 129 126 123 119 115 116 116 119 122 124 128 131 131 132 131 119 113 96
328 333 41 73 86 70 270 251 280 270 271 144 103 104 46 71 53 120 104 146 148 147 150 151 155 151 144 142 144 142 138 135 132 131 128 126 125 127 129 133 139 139 139 140 143 141 140 134 115
292 330 83 100 129 186 227 271 295 318 298 337 96 66 88 109 29 135 135 145 135 143 150 155 151 156 152 150 149 149 146 145 141 140 141 139 135 137 138 141 144 148 151 154 155 150 155 167 155
29 10 21 88 247 258 239 283 289 287 290 4 104 80 50 312 126 146 140 136 133 142 146 152 151 150 156 158 152 151 152 152 149 148 149 146 142 141 144 146 150 155 158 160 159 165 190 231 245
36 61 55 57 261 269 280 256 265 233 90 19 29 25 62 17 50 83 137 142 144 145 152 154 154 151 155 162 161 155 157 157 157 155 155 155 151 151 156 157 160 163 167 177 179 182 211 246 264
27 91 53 259 268 298 299 294 319 36 43 3 38 112 48 271 57 56 150 156 155 153 159 165 158 156 156 160 167 169 160 161 162 164 164 164 160 158 162 166 169 174 180 184 196 200 212 242 258
120 88 215 290 275 344 338 327 12 337 36 18 34 89 141 44 5 26 97 129 113 122 153 167 169 160 158 162 163 171 174 166 167 170 170 169 168 164 167 171 178 182 186 197 208 215 231 243 257
112 92 329 277 295 282 316 360 339 22 12 305 20 84 284 248 350 22 62 128 141 148 159 182 169 168 166 165 166 168 176 178 171 173 175 173 174 173 173 174 182 188 196 206 217 232 243 258 260
107 66 252 258 306 282 316 13 331 300 21 344 347 72 295 15 28 40 12 95 86 159 169 186 178 173 167 169 174 165 174 179 179 176 176 176 174 173 181 185 192 194 200 210 223 237 248 262 270
110 128 227 220 269 285 286 45 314 18 352 336 336 332 54 67 51 54 35 358 143 155 258 306 209 173 163 172 172 170 168 173 176 179 174 171 173 177 182 193 200 206 208 212 225 235 245 262 268
234 194 214 273 251 235 317 338 228 312 299 248 265 276 305 339 353 20 219 199 129 223 165 192 207 218 178 183 172 170 169 166 169 178 180 178 177 186 192 186 204 208 218 218 226 238 235 246 251
305 279 224 264 345 325 306 266 306 233 242 234 244 247 259 290 300 300 275 243 269 171 199 195 176 196 216 177 188 174 172 174 174 178 179 182 183 187 191 197 206 204 213 216 229 225 229 242 251
81 322 318 319 307 285 299 281 236 269 264 258 252 283 266 259 262 255 245 240 250 226 196 184 165 172 195 169 185 207 190 180 177 178 183 180 188 190 184 198 203 212 205 216 226 225 231 240 235
306 304 304 302 296 277 244 288 59 281 278 288 282 267 259 239 232 240 245 244 234 243 187 180 182 181 180 195 179 185 194 195 183 185 191 191 193 193 196 195 209 208 202 223 223 218 226 243 226
294 330 310 309 271 282 91 318 251 259 266 262 266 250 251 235 228 226 226 216 210 220 196 195 180 185 184 187 186 187 191 190 195 195 193 193 196 196 196 198 207 215 204 219 211 223 231 234 236
325 26 344 299 291 274 118 259 275 305 288 270 290 289 265 273 284 311 291 226 215 224 222 192 189 180 192 187 183 179 185 198 203 201 192 200 195 200 198 203 209 213 190 203 199 218 211 193 191
349 249 240 310 290 326 72 275 280 301 6 8 34 48 40 22 12 9 1 318 302 275 226 190 191 184 189 187 192 183 189 195 205 202 213 197 202 200 203 206 212 196 183 198 202 191 179 169 145
260 259 259 251 294 354 340 307 308 338 76 67 56 32 31 15 359 349 344 349 340 293 282 290 196 196 201 184 170 161 198 206 195 196 206 211 203 204 203 206 203 180 172 201 168 162 80 135 144
230 247 285 284 294 326 287 304 4 49 48 46 44 37 13 4 333 356 347 338 341 336 299 266 238 218 177 156 172 188 196 207 216 208 210 208 209 201 201 205 194 175 181 191 176 134 133 79 148
328 313 310 288 308 343 332 317 100 76 62 59 39 17 0 350 354 346 340 340 334 307 310 311 267 242 226 187 195 173 166 180 179 155 253 230 221 193 191 193 192 184 162 163 173 144 129 110 151
352 288 280 270 301 293 299 310 180 73 63 45 30 1 356 350 342 339 337 330 327 320 308 286 282 263 234 216 160 72 54 54 172 186 234 253 228 207 197 190 183 181 170 173 178 159 142 142 73
349 267 298 303 318 273 111 269 6 106 48 28 355 348 345 334 329 323 320 314 311 308 304 302 287 271 259 236 209 174 182 187 192 197 208 212 205 228 207 191 180 172 168 170 173 161 152 129 146
230 278 289 260 265 62 339 75 250 11 10 357 345 338 334 326 319 324 323 315 307 308 306 306 293 290 262 236 234 207 193 200 192 204 205 202 193 188 305 242 181 165 169 170 154 143 138 118 138
301 8 6 13 48 38 218 108 312 11 337 332 307 314 333 327 321 317 314 310 305 306 301 295 290 276 277 257 242 219 203 196 189 186 205 202 204 202 217 251 223 167 160 159 143 122 123 118 109
53 50 356 2 6 236 275 36 244 249 305 285 308 327 326 322 318 319 320 321 318 314 306 299 290 277 266 266 254 229 215 200 201 187 197 189 187 203 210 222 246 169 136 128 123 115 119 124 119
288 124 140 264 290 288 320 178 216 195 227 265 269 289 330 327 319 321 322 320 319 314 309 301 294 279 263 251 249 234 216 201 206 190 195 205 181 194 205 200 212 148 131 125 121 116 107 115 110
324 47 149 100 29 36 275 338 289 166 342 340 333 339 328 321 325 329 327 325 316 307 297 295 290 283 256 247 241 228 217 206 195 184 184 188 160 182 186 192 164 137 129 129 127 122 120 117 113
96 190 28 23 32 300 309 298 248 352 311 310 317 326 322 315 325 341 338 330 322 311 314 310 305 276 241 242 237 216 209 206 190 173 181 172 158 170 172 151 150 137 126 129 120 115 112 105 93
14 7 30 126 137 188 285 260 185 290 293 311 306 318 316 318 328 339 330 325 318 314 319 325 327 310 262 251 245 217 209 208 190 173 175 171 164 165 161 155 156 136 124 122 116 113 117 105 102
155 251 172 125 249 232 213 271 282 265 296 303 314 302 309 320 321 327 328 330 327 324 326 326 328 315 317 319 242 221 203 194 175 176 181 164 167 162 153 150 142 129 123 123 126 119 110 108 99